This is the latest recevied weather packets stored in our database for station/object KB2EAR-13. If no packets are shown the sender has not sent any weather packets the latest 10 day(s).
| Time | Temp. | Humidity | Pressure | Rain* | Wind** | Luminosity | Snow |
|---|---|---|---|---|---|---|---|
| 1778171717 | 16.11° C | 44% | 1011.1 hPa | 0 mm | - | - | - |
| 1778171417 | 16.11° C | 45% | 1011.2 hPa | 0 mm | - | - | - |
| 1778171117 | 15.56° C | 45% | 1011.4 hPa | 0 mm | - | - | - |
| 1778170817 | 15.56° C | 45% | 1011.5 hPa | 0 mm | - | - | - |
| 1778170517 | 15.56° C | 45% | 1011.4 hPa | 0 mm | - | - | - |
| 1778170217 | 15.56° C | 48% | 1011.3 hPa | 0 mm | - | - | - |
| 1778169917 | 15.56° C | 45% | 1011.4 hPa | 0 mm | - | - | - |
| 1778169709 | 15° C | 48% | 1011.4 hPa | 0 mm | - | - | - |
| 1778169636 | 15° C | 49% | 1011.4 hPa | 0 mm | - | - | - |
| 1778169317 | 15° C | 49% | 1011.4 hPa | 0 mm | - | - | - |
| 1778169017 | 14.44° C | 50% | 1011.6 hPa | 0 mm | - | - | - |
| 1778168717 | 14.44° C | 49% | 1011.7 hPa | 0 mm | - | - | - |
| 1778168417 | 14.44° C | 50% | 1012 hPa | 0 mm | - | - | - |
| 1778168117 | 14.44° C | 52% | 1011.9 hPa | 0 mm | - | - | - |
| 1778167817 | 14.44° C | 52% | 1011.9 hPa | 0 mm | - | - | - |
| 1778167517 | 14.44° C | 53% | 1012.1 hPa | 0 mm | - | - | - |
| 1778167217 | 14.44° C | 51% | 1012.1 hPa | 0 mm | - | - | - |
| 1778166917 | 13.89° C | 52% | 1012.2 hPa | 0 mm | - | - | - |
| 1778166617 | 13.89° C | 53% | 1012.2 hPa | 0 mm | - | - | - |
| 1778166317 | 13.89° C | 53% | 1012.1 hPa | 0 mm | - | - | - |
| 1778166017 | 13.89° C | 53% | 1012 hPa | 0 mm | - | - | - |
| 1778165717 | 13.89° C | 55% | 1012 hPa | 0 mm | - | - | - |
| 1778165417 | 13.89° C | 57% | 1012.4 hPa | 0 mm | - | - | - |
| 1778165117 | 13.33° C | 64% | 1012.5 hPa | 0 mm | - | - | - |
| 1778164817 | 13.33° C | 65% | 1012.5 hPa | 0 mm | - | - | - |
* Rain latest hour (hover to see other rain measurements)
** Current wind speed in m/s (hover to see current wind gust speed)